| time (UTC) | temp C | wind direction | speed KPH | gust KPH | rain 1hr cm | rain 24hr cm | rain mn cm | humidity % | barometer mb |
| 20260506061510 | 5 | 131 | 3.2 | 0.0 | 0.00 | 0.00 | 0.00 | 73 | 1004.4 |
| 20260506050108 | 3 | 105 | 6.4 | 0.0 | 0.00 | 0.00 | 0.00 | 75 | 1003.8 |
| 20260506044558 | 3 | 131 | 0.0 | 0.0 | 0.00 | 0.00 | 0.00 | 76 | 1003.6 |
| 20260506043057 | 3 | 135 | 0.0 | 0.0 | 0.00 | 0.00 | 0.00 | 78 | 1003.6 |
| 20260506041602 | 3 | 134 | 1.6 | 0.0 | 0.00 | 0.00 | 0.00 | 78 | 1003.6 |
| 20260506040052 | 3 | 68 | 3.2 | 0.0 | 0.00 | 0.00 | 0.00 | 78 | 1003.4 |
| 20260506034558 | 3 | 72 | 1.6 | 0.0 | 0.00 | 0.00 | 0.00 | 78 | 1003.2 |
| 20260506033051 | 3 | 51 | 0.0 | 0.0 | 0.00 | 0.00 | 0.00 | 79 | 1003.2 |
| 20260506031549 | 2 | 50 | 0.0 | 0.0 | 0.00 | 0.00 | 0.00 | 80 | 1003.2 |
| 20260506030048 | 2 | 46 | 0.0 | 0.0 | 0.00 | 0.00 | 0.00 | 80 | 1002.9 |
| 20260506024557 | 2 | 46 | 0.0 | 0.0 | 0.00 | 0.00 | 0.00 | 80 | 1002.8 |
| 20260506023045 | 2 | 46 | 0.0 | 0.0 | 0.00 | 0.00 | 0.00 | 80 | 1002.6 |
| 20260506021544 | 2 | 46 | 0.0 | 0.0 | 0.00 | 0.00 | 0.00 | 81 | 1002.6 |
| 20260506020048 | 2 | 44 | 0.0 | 0.0 | 0.00 | 0.00 | 0.00 | 81 | 1002.5 |
| 20260506014541 | 2 | 44 | 0.0 | 0.0 | 0.00 | 0.00 | 0.00 | 81 | 1002.5 |
| 20260506013039 | 2 | 44 | 0.0 | 0.0 | 0.00 | 0.00 | 0.00 | 80 | 1002.2 |
| 20260506011600 | 2 | 44 | 0.0 | 0.0 | 0.00 | 0.00 | 0.00 | 79 | 1002.3 |
| 20260506010035 | 3 | 44 | 0.0 | 0.0 | 0.00 | 0.00 | 0.00 | 79 | 1002.1 |
| 20260506004542 | 3 | 44 | 1.6 | 0.0 | 0.00 | 0.00 | 0.00 | 79 | 1001.9 |
| 20260506003031 | 3 | 41 | 1.6 | 0.0 | 0.00 | 0.00 | 0.00 | 81 | 1001.7 |
| 20260506001529 | 3 | 42 | 3.2 | 0.0 | 0.00 | 0.00 | 0.00 | 81 | 1001.8 |
| 20260506000045 | 3 | 44 | 3.2 | 0.0 | 0.00 | 0.00 | 0.00 | 81 | 1001.7 |
| 20260505234539 | 3 | 53 | 3.2 | 0.0 | 0.00 | 0.00 | 0.00 | 81 | 1001.6 |
| 20260505233027 | 3 | 61 | 4.8 | 0.0 | 0.00 | 0.00 | 0.00 | 81 | 1001.6 |
| 20260505231522 | 3 | 61 | 3.2 | 0.0 | 0.00 | 0.00 | 0.00 | 80 | 1001.4 |
| 20260505230044 | 3 | 48 | 3.2 | 0.0 | 0.00 | 0.00 | 0.00 | 80 | 1001.4 |
| 20260505224533 | 3 | 63 | 3.2 | 0.0 | 0.00 | 0.00 | 0.00 | 79 | 1001.3 |
| 20260505223022 | 3 | 67 | 3.2 | 0.0 | 0.00 | 0.00 | 0.00 | 79 | 1001.3 |
| 20260505221514 | 3 | 53 | 3.2 | 0.0 | 0.00 | 0.00 | 0.00 | 78 | 1001.2 |
| 20260505220011 | 3 | 53 | 1.6 | 0.0 | 0.00 | 0.00 | 0.97 | 78 | 1001.2 |
| 20260505214514 | 3 | 53 | 1.6 | 0.0 | 0.00 | 0.00 | 0.97 | 77 | 1001.2 |
| 20260505213009 | 4 | 53 | 3.2 | 0.0 | 0.00 | 0.00 | 0.97 | 76 | 1001.0 |
| 20260505211516 | 4 | 49 | 3.2 | 0.0 | 0.00 | 0.00 | 0.97 | 76 | 1001.1 |
| 20260505210007 | 4 | 38 | 1.6 | 0.0 | 0.00 | 0.00 | 0.97 | 76 | 1000.9 |
| 20260505204506 | 4 | 37 | 1.6 | 0.0 | 0.00 | 0.00 | 0.97 | 76 | 1000.8 |
| 20260505203009 | 4 | 37 | 0.0 | 0.0 | 0.00 | 0.00 | 0.97 | 75 | 1000.6 |
| 20260505201505 | 5 | 36 | 1.6 | 0.0 | 0.00 | 0.00 | 0.97 | 75 | 1000.7 |
| 20260505200004 | 5 | 36 | 3.2 | 0.0 | 0.00 | 0.00 | 0.97 | 74 | 1000.6 |
| 20260505194504 | 5 | 30 | 1.6 | 0.0 | 0.00 | 0.00 | 0.97 | 72 | 1000.5 |
| 20260505193003 | 5 | 31 | 3.2 | 0.0 | 0.00 | 0.00 | 0.97 | 69 | 1000.4 |
| 20260505191503 | 5 | 227 | 0.0 | 0.0 | 0.00 | 0.00 | 0.97 | 67 | 1000.5 |
| 20260505190001 | 5 | 227 | 0.0 | 0.0 | 0.00 | 0.00 | 0.97 | 65 | 1000.5 |
| 20260505184505 | 5 | 227 | 0.0 | 0.0 | 0.00 | 0.00 | 0.97 | 64 | 1000.3 |
| 20260505183100 | 6 | 227 | 0.0 | 0.0 | 0.00 | 0.00 | 0.97 | 64 | 1000.3 |
| 20260505181558 | 6 | 227 | 0.0 | 0.0 | 0.00 | 0.00 | 0.97 | 63 | 1000.1 |
| 20260505174558 | 6 | 227 | 1.6 | 0.0 | 0.00 | 0.00 | 0.97 | 61 | 1000.0 |
| 20260505173113 | 7 | 228 | 3.2 | 0.0 | 0.00 | 0.00 | 0.97 | 57 | 1000.0 |
| 20260505171623 | 6 | 223 | 1.6 | 0.0 | 0.00 | 0.00 | 0.97 | 59 | 1000.0 |
| 20260505170055 | 6 | 228 | 1.6 | 0.0 | 0.00 | 0.00 | 0.97 | 61 | 999.9 |
| 20260505164601 | 6 | 236 | 3.2 | 0.0 | 0.00 | 0.00 | 0.97 | 59 | 999.8 |
| 20260505163054 | 7 | 252 | 4.8 | 0.0 | 0.00 | 0.00 | 0.97 | 59 | 999.8 |
| 20260505161555 | 7 | 236 | 3.2 | 0.0 | 0.00 | 0.00 | 0.97 | 55 | 999.6 |
| 20260505153047 | 7 | 283 | 1.6 | 0.0 | 0.00 | 0.00 | 0.97 | 57 | 999.6 |
| 20260505151545 | 7 | 248 | 3.2 | 0.0 | 0.00 | 0.00 | 0.94 | 56 | 999.6 |
| 20260505150105 | 7 | 242 | 1.6 | 0.0 | 0.00 | 0.00 | 0.94 | 56 | 999.6 |
| 20260505124525 | 6 | 242 | 6.4 | 0.0 | 0.00 | 0.00 | 0.84 | 78 | 999.4 |
| 20260505123014 | 5 | 296 | 4.8 | 0.0 | 0.00 | 0.00 | 0.79 | 84 | 999.2 |
| 20260505121523 | 3 | 294 | 3.2 | 0.0 | 0.00 | 0.00 | 0.76 | 87 | 999.3 |
| 20260505120009 | 3 | 290 | 4.8 | 0.0 | 0.00 | 0.00 | 0.71 | 89 | 999.3 |
| 20260505114508 | 3 | 288 | 6.4 | 0.0 | 0.00 | 0.00 | 0.71 | 87 | 999.2 |
| 20260505113008 | 3 | 236 | 8.0 | 0.0 | 0.00 | 0.00 | 0.71 | 86 | 999.0 |
| 20260505111504 | 4 | 241 | 4.8 | 0.0 | 0.00 | 0.00 | 0.66 | 87 | 998.7 |
| 20260505101600 | 3 | 271 | 0.0 | 0.0 | 0.00 | 0.00 | 0.48 | 92 | 998.3 |
| 20260505100137 | 2 | 290 | 0.0 | 0.0 | 0.00 | 0.00 | 0.46 | 91 | 998.3 |
| 20260505094558 | 2 | 296 | 1.6 | 0.0 | 0.00 | 0.00 | 0.41 | 92 | 998.3 |
| 20260505093057 | 1 | 300 | 4.8 | 0.0 | 0.00 | 0.00 | 0.36 | 91 | 998.4 |
| 20260505091617 | 1 | 264 | 4.8 | 0.0 | 0.00 | 0.00 | 0.30 | 90 | 998.6 |
| 20260505090101 | 2 | 248 | 4.8 | 0.0 | 0.00 | 0.00 | 0.25 | 89 | 998.1 |
| 20260505084552 | 2 | 248 | 1.6 | 0.0 | 0.00 | 0.00 | 0.18 | 91 | 997.9 |
| 20260505083053 | 2 | 190 | 0.0 | 0.0 | 0.00 | 0.00 | 0.15 | 92 | 997.9 |
| 20260505081551 | 2 | 190 | 0.0 | 0.0 | 0.00 | 0.00 | 0.05 | 92 | 997.6 |
| 20260505080052 | 1 | 190 | 0.0 | 0.0 | 0.00 | 0.00 | 0.05 | 92 | 997.5 |
| 20260505074550 | 1 | 189 | 0.0 | 0.0 | 0.00 | 0.00 | 0.05 | 92 | 997.5 |
| 20260505073057 | 1 | 190 | 0.0 | 0.0 | 0.00 | 0.00 | 0.05 | 91 | 997.7 |
| 20260505071548 | 1 | 191 | 0.0 | 0.0 | 0.00 | 0.00 | 0.05 | 91 | 997.7 |